Theta_e
338 336 339 337 337 339 343 345 343 340 343 344 345 344 344 344 345 342 344 344 343 341 343 344 346 346 346 344 345 346 346 347 346 343 341 344 344 344 344 344 345 341 345
344 336 337 342 339 339 343 344 344 344 342 343 346 345 343 341 344 344 345 342 343 342 342 346 345 345 345 347 345 345 346 346 347 344 344 342 344 345 344 344 342 342 342
345 343 337 337 342 340 340 341 343 343 343 344 344 343 343 342 343 344 343 344 342 343 344 342 342 342 343 342 344 344 343 345 346 347 346 345 345 345 343 344 343 340 343
345 345 342 336 337 338 339 340 339 341 341 341 344 343 342 342 342 343 344 343 343 344 343 342 342 342 342 343 343 344 345 346 346 347 347 345 345 345 344 345 343 343 341
345 345 345 340 337 339 339 338 338 339 339 341 344 344 345 344 345 346 346 345 345 344 343 343 342 343 344 344 344 346 345 344 345 345 345 345 344 345 343 343 345 343 341
345 346 346 344 339 338 338 338 338 339 340 340 342 343 342 343 343 343 344 346 345 344 344 344 344 344 344 347 346 346 345 345 345 345 346 344 345 344 343 344 344 345 344
344 345 346 346 342 337 339 342 342 344 345 344 343 343 342 337 339 340 344 345 345 345 344 344 344 345 344 344 344 344 346 346 347 346 346 346 346 345 343 345 344 343 343
343 344 347 347 345 341 343 345 345 344 345 343 343 341 341 343 343 342 342 345 346 344 343 342 341 343 342 343 344 344 344 343 344 345 346 345 345 345 344 345 346 346 345
340 335 343 347 347 343 344 344 343 341 339 342 344 346 345 345 346 345 346 345 344 344 343 344 344 342 342 343 342 340 339 338 340 343 345 345 345 344 344 343 343 343 344
345 342 338 346 347 348 346 346 344 334 336 341 344 345 346 345 343 340 339 338 336 333 331 333 333 335 340 340 335 331 330 331 339 339 341 343 342 342 342 342 342 341 342
346 346 346 347 348 348 347 346 345 343 343 342 344 345 339 330 329 331 333 335 337 337 335 337 336 334 335 334 335 335 334 334 332 335 336 339 341 344 344 343 343 343 342
345 347 348 348 347 348 347 346 346 345 345 346 343 334 331 334 337 338 335 335 335 337 337 335 337 337 338 339 337 333 333 334 335 336 337 338 341 342 342 342 342 343 344
345 347 348 348 349 348 348 345 347 347 343 334 333 335 336 337 339 339 336 335 334 332 331 336 339 339 340 340 336 335 334 333 332 330 331 336 339 340 340 340 339 339 339
348 348 350 350 350 349 349 350 346 337 337 335 337 338 339 336 335 335 335 333 331 330 328 326 329 335 337 336 330 331 333 332 331 331 329 332 335 334 334 335 335 334 334
349 350 347 347 348 350 349 347 337 338 339 338 338 337 338 337 337 335 332 332 332 332 330 329 326 324 327 328 328 328 328 328 328 327 327 329 334 331 332 332 331 331 330
349 349 348 350 350 348 345 337 338 338 339 340 340 340 339 338 338 334 332 333 333 332 330 330 328 325 326 327 327 327 329 328 328 327 327 335 333 332 331 330 329 329 329
344 342 344 348 343 342 335 336 339 341 342 343 342 336 335 335 333 332 332 332 333 331 330 329 327 327 328 327 327 327 328 328 329 329 334 334 332 329 328 326 327 329 332
339 341 341 343 339 336 339 342 339 337 338 335 331 331 331 331 331 331 332 332 332 330 327 326 326 328 327 327 327 327 327 327 327 327 328 327 328 328 328 328 329 331 332
340 345 343 336 338 341 341 338 335 332 331 331 331 332 332 332 332 331 331 332 331 326 326 326 327 327 326 326 326 326 327 327 327 327 328 328 328 329 330 330 331 331 331
340 337 337 339 340 337 336 335 332 330 329 330 331 329 328 328 328 328 330 331 326 325 327 327 326 325 325 325 327 327 327 327 327 327 327 328 329 329 329 330 329 329 328
334 337 341 340 338 338 333 332 330 327 329 329 327 326 324 323 326 328 328 324 325 325 325 326 326 325 325 326 326 325 325 325 326 326 326 326 327 327 327 327 326 325 324
333 330 337 339 338 334 331 329 328 329 327 326 327 327 325 323 325 327 325 325 326 326 325 324 324 324 324 325 325 325 325 325 325 326 326 325 325 324 324 323 323 322 321
332 326 335 338 334 331 329 329 330 329 328 327 327 327 326 323 326 325 325 326 325 325 324 323 323 323 324 324 325 324 323 324 324 324 324 323 323 322 322 322 321 320 319
337 332 332 336 335 334 332 331 331 330 330 330 329 327 327 324 325 325 326 326 325 324 322 322 322 322 323 323 323 323 323 323 323 323 323 323 322 322 321 320 320 319 319
336 334 334 334 337 335 335 332 331 330 330 330 329 327 327 324 326 326 325 323 323 322 321 322 320 319 318 318 319 321 322 321 320 318 317 318 319 318 316 316 316 317 317
335 332 332 334 334 336 335 334 331 330 331 330 329 327 327 324 326 326 325 322 320 318 318 319 320 316 314 314 315 316 317 317 317 316 317 317 317 317 317 317 318 317 315
Wind_Speed
25 27 27 27 25 25 22 19 20 22 20 17 14 14 14 17 19 17 13 12 12 11 11 12 13 13 13 13 14 13 13 14 16 15 15 14 13 12 13 15 17 19 21
24 27 29 26 27 28 24 21 18 18 19 18 17 15 16 17 20 19 18 15 14 13 12 14 13 14 15 15 15 16 17 16 17 16 15 15 16 17 16 16 17 20 18
27 27 28 29 28 29 28 24 23 21 21 20 18 17 15 13 14 17 19 21 18 18 17 17 17 17 18 18 18 18 18 18 18 19 17 16 17 17 18 20 19 16 14
28 27 26 27 28 28 26 24 25 23 22 21 20 19 16 15 17 20 21 21 21 20 20 19 19 19 19 19 18 19 19 20 20 20 20 20 18 18 18 19 19 17 18
29 24 25 23 25 26 25 23 22 22 21 21 19 17 17 18 17 17 16 18 18 18 18 18 19 19 18 18 19 18 19 20 21 23 23 22 21 20 19 18 22 21 18
29 29 26 23 23 26 23 21 20 19 18 18 18 18 19 18 17 19 20 20 18 19 19 19 19 18 19 19 19 20 20 22 24 26 26 25 22 22 21 21 20 21 23
32 29 27 26 23 23 22 20 19 18 18 18 20 19 21 17 22 20 19 22 19 20 21 21 19 20 21 22 22 23 24 25 26 25 27 28 27 25 24 23 23 24 25
20 25 34 31 26 21 19 17 17 15 15 13 17 17 13 15 14 17 19 23 21 19 18 19 21 20 19 20 22 23 24 25 27 27 28 29 28 26 25 23 23 24 26
26 28 36 34 26 26 18 19 18 13 15 10 16 14 13 11 14 17 18 17 17 17 18 19 19 20 20 20 20 22 22 23 23 25 28 30 30 30 29 29 30 29 30
30 28 25 35 30 22 20 19 17 8 15 14 16 13 13 15 15 14 14 14 14 13 14 16 17 18 18 18 20 22 24 24 24 24 25 26 28 30 31 32 32 31 31
29 30 35 28 27 21 17 18 17 13 13 15 14 13 11 11 10 9 9 10 10 10 12 13 16 17 17 16 17 20 22 23 24 25 25 24 24 25 26 30 31 31 30
20 22 25 24 21 20 18 15 14 13 14 13 13 12 10 7 5 7 6 7 10 14 17 17 18 18 19 20 22 21 21 21 21 23 24 23 21 20 22 22 21 21 25
20 20 19 20 19 18 16 15 13 12 13 11 10 9 8 7 9 9 10 13 15 16 17 19 20 21 22 23 23 23 24 24 24 24 24 21 18 18 17 18 19 19 19
20 20 20 21 21 18 15 13 12 12 12 9 7 5 7 5 6 8 12 13 12 12 15 18 20 23 25 27 28 27 29 31 31 29 25 20 21 19 19 16 15 16 18
18 18 19 19 18 18 16 13 11 11 9 6 7 8 8 9 8 11 12 11 13 15 17 19 20 21 23 24 26 27 28 28 29 27 24 20 18 20 20 18 20 20 23
20 19 19 20 20 17 14 14 12 10 8 7 7 9 11 12 13 13 14 15 16 17 20 23 24 20 19 19 20 20 15 16 19 20 17 18 18 19 20 19 21 23 22
17 18 19 19 18 17 17 15 12 10 9 9 11 11 11 11 12 14 16 16 17 18 22 26 25 18 14 14 15 14 13 12 10 11 13 12 16 18 20 22 23 22 18
18 20 19 18 16 17 15 12 9 6 7 8 8 7 8 11 13 15 16 18 18 20 24 26 19 12 12 14 14 14 13 14 14 15 17 19 20 22 23 22 19 17 16
18 18 17 18 17 15 13 11 9 7 5 5 5 7 9 11 13 15 15 16 17 19 22 22 15 12 15 16 16 17 18 17 17 18 18 19 20 20 18 17 15 14 13
17 17 17 18 17 16 13 13 10 7 4 3 5 8 9 12 13 13 13 15 17 20 17 16 15 15 16 17 17 17 16 14 15 16 16 15 14 13 13 12 12 12 11
23 19 17 16 16 13 11 12 8 3 1 4 6 7 11 12 10 9 10 13 14 16 14 14 14 16 17 16 16 16 15 15 14 12 13 14 14 11 10 10 8 9 10
24 21 19 16 14 12 11 9 6 2 2 4 6 8 12 11 8 8 9 11 12 11 14 15 13 12 12 10 11 12 13 10 11 12 10 9 8 6 6 5 7 10 15
23 23 22 19 15 13 9 8 5 2 2 6 8 10 13 11 7 7 8 9 7 10 11 9 9 9 9 7 8 9 9 7 5 3 2 2 2 4 6 8 13 20 18
24 23 23 21 18 15 11 8 5 3 4 7 11 12 14 12 8 7 7 7 7 8 7 7 6 6 6 5 5 5 4 6 7 9 11 8 8 11 15 17 17 16 12
31 21 14 18 18 16 14 10 7 7 8 10 13 13 14 13 9 8 7 7 7 7 6 4 2 3 4 6 7 9 11 14 17 19 20 20 18 16 13 11 9 7 6
25 23 13 12 16 15 14 12 11 9 11 13 16 15 15 13 9 9 8 6 5 5 4 3 2 3 6 7 9 12 13 13 13 14 14 13 12 10 8 6 4 2 2
Wind_Direction
210 208 204 203 202 199 203 209 222 221 224 226 227 235 243 247 246 244 249 258 260 261 264 266 268 269 267 265 266 267 266 270 280 284 286 285 280 281 286 272 270 277 262
217 211 212 209 207 206 208 214 211 209 216 225 236 246 256 259 238 237 246 260 264 267 265 266 273 272 272 272 277 265 265 268 274 282 281 278 276 280 281 265 268 280 265
221 218 216 216 215 215 216 216 220 225 228 231 240 252 259 257 245 240 258 264 263 266 270 264 267 270 269 269 269 269 271 271 269 275 280 282 278 280 277 262 272 278 268
219 222 222 219 218 220 221 223 224 227 230 235 243 252 249 254 255 258 260 262 265 266 266 266 270 269 271 267 261 267 268 268 267 274 278 279 281 279 277 271 270 281 280
215 222 226 226 221 221 223 225 229 233 239 239 239 242 246 251 256 261 260 263 265 267 263 261 265 268 272 271 265 267 266 267 269 274 277 275 275 275 277 280 273 279 274
209 223 225 230 224 221 219 220 223 230 235 235 238 245 247 251 257 259 266 268 265 267 267 266 267 266 266 270 270 272 272 270 271 275 276 274 275 273 276 277 275 275 274
212 225 227 226 221 218 218 221 220 226 232 238 242 252 254 263 254 260 269 270 264 266 267 266 267 267 268 269 266 265 267 269 270 274 272 272 274 274 280 276 273 271 273
196 224 233 230 222 208 212 219 230 242 256 260 256 251 240 242 247 253 261 259 261 262 264 271 271 269 271 275 276 274 271 271 269 270 268 271 272 275 271 271 269 270 270
215 207 228 230 225 211 212 222 223 244 255 273 268 252 247 246 245 249 255 260 265 268 270 273 272 272 275 278 280 283 281 278 276 271 268 268 269 269 269 269 268 269 271
214 185 217 229 227 215 211 217 208 230 224 241 252 241 241 247 249 253 261 269 277 284 282 280 282 282 280 281 284 289 290 289 282 278 275 272 271 270 267 267 268 267 269
222 219 219 217 216 214 214 217 224 230 225 232 236 246 244 250 249 259 268 277 279 275 289 297 296 286 281 281 289 297 295 291 286 284 283 284 276 274 273 267 264 263 265
221 218 215 212 209 205 203 208 214 210 212 227 234 237 237 242 245 257 270 294 295 289 280 272 274 282 281 284 292 293 293 294 293 287 284 285 288 283 280 279 276 266 261
205 198 205 205 199 202 205 202 203 205 208 213 217 219 228 258 286 277 283 299 300 296 290 285 279 276 277 280 284 284 284 287 288 287 285 288 292 290 289 283 279 278 276
199 197 195 195 194 200 202 199 198 196 198 203 196 220 256 259 282 287 290 294 297 304 310 300 287 280 280 283 284 279 279 281 280 279 281 276 270 279 286 284 286 287 287
198 194 189 187 193 193 192 193 198 194 201 205 233 259 259 269 285 285 296 295 295 304 309 313 308 288 283 284 285 284 281 278 276 275 269 264 263 273 277 279 281 285 291
195 193 192 187 183 188 191 193 185 187 203 231 254 265 272 276 279 279 286 291 294 298 308 314 314 298 289 297 305 307 304 293 283 271 261 249 249 268 281 279 283 288 285
195 196 195 187 189 191 185 183 185 208 231 254 273 281 278 278 278 284 289 291 294 301 310 313 310 295 292 305 305 305 305 306 301 276 261 250 268 275 276 283 283 279 273
205 202 192 189 191 186 179 190 199 220 234 250 262 277 277 281 285 290 290 292 298 308 315 314 308 293 299 300 297 294 293 289 286 281 274 273 273 275 276 276 272 271 266
196 194 188 185 181 187 189 199 196 188 208 250 281 294 294 288 287 290 290 289 295 307 314 313 310 298 297 293 292 290 290 287 283 280 278 276 273 273 271 269 264 257 253
188 191 188 187 185 183 189 207 197 184 184 264 299 313 310 302 298 293 288 295 309 318 318 318 315 301 295 291 287 288 289 286 284 286 283 281 275 270 265 259 252 247 240
187 184 189 193 194 188 195 211 206 177 139 310 309 315 326 316 298 291 298 312 314 317 313 309 303 296 291 288 290 291 291 289 284 281 280 282 281 266 255 246 236 227 197
192 182 188 188 191 194 198 213 200 174 343 333 313 308 328 324 308 298 303 308 318 319 318 315 313 306 300 289 281 284 281 280 281 283 280 274 267 248 228 201 187 170 153
198 197 194 190 188 189 197 197 205 201 346 344 323 317 327 326 306 286 294 294 299 317 320 335 340 333 326 313 295 296 298 290 293 297 282 257 207 165 147 150 151 143 138
205 201 203 199 196 197 203 210 222 249 309 318 324 317 326 325 303 286 291 297 300 311 322 340 359 17 20 28 32 41 69 97 102 110 108 105 119 124 124 126 132 141 142
220 200 206 216 210 210 214 224 241 255 293 312 319 312 316 321 289 280 278 292 304 302 299 297 318 25 69 86 88 98 105 107 107 105 103 105 110 115 118 118 123 140 168
222 220 238 234 216 210 222 232 246 263 287 303 309 300 309 313 279 268 260 281 301 302 283 241 242 143 120 112 116 117 117 118 117 119 119 121 124 129 138 143 135 136 167